Vertical_Velocity
0 -1 3 2 3 -1 -3 -4 2 -4 -0 -1 0 -1 -2 -2 -2 -1 3 2 1 -1 -1 1 -1 -5 -1
0 -1 -0 3 4 1 -1 1 -2 3 -0 5 -0 -0 -3 -6 -1 -1 -3 -3 -3 -2 -6 -7 -6 -0 4
-0 0 -2 -3 2 -2 -2 -5 -7 -2 -3 1 1 -4 0 -4 -5 -3 -3 -2 1 -8 -2 2 0 -2 -1
0 3 -3 -0 -2 1 -3 -1 -2 -1 1 -3 -3 1 -10 -3 2 1 1 -3 -2 -3 -2 -1 0 0 -4
2 -4 -2 1 -3 -1 -0 3 2 -1 -1 1 -3 -1 1 3 2 3 -2 -3 -2 -1 3 -1 -0 -2 -2
3 2 -2 -6 -1 -4 2 -1 -2 -2 -11 -0 -2 -4 -1 4 0 -1 3 1 2 -0 -1 -1 -3 -2 -4
-2 -4 -3 -1 -1 2 -2 -2 -5 3 -2 -14 -6 -5 -6 -4 2 4 1 -2 -3 -2 -1 -1 -5 -4 -4
3 -0 -1 2 -4 0 -1 -4 -3 6 -0 -9 5 -4 -8 0 -5 -3 -1 -2 -0 3 -2 -6 -4 -1 -3
1 2 -2 -1 3 -2 -1 -4 -2 -1 2 -5 -2 -0 -8 -3 -3 -3 -5 4 -1 -7 -3 -1 1 -3 0
1 -1 1 -2 1 -2 -1 -5 -0 -6 -1 -9 -8 -5 -3 -6 2 2 -2 -3 -5 2 -1 -1 -2 -2 -5
-0 1 4 -0 -4 -5 -3 -2 -2 -2 7 4 -5 0 0 -5 -4 -8 -11 -5 -1 -2 -2 -2 -0 2 -6
0 3 1 -0 -2 -6 -3 -2 -1 1 -1 -2 -2 2 1 -6 -12 -3 4 1 -5 -0 -2 -2 4 5 4
-0 0 -2 -1 -3 -6 -1 -0 0 2 1 1 2 -1 -1 -3 -5 -2 -15 -6 -2 -1 -1 -4 -5 -0 -11
1 -0 -4 -3 -3 3 -1 -1 -2 -1 6 2 2 -1 -6 -1 -1 -3 6 -6 3 -2 -4 -6 -4 3 1
-3 -3 0 1 -1 -2 1 -0 -4 -3 -4 3 2 -2 1 -0 -5 6 -3 -3 -1 -7 -4 -8 1 -1 -1
-0 0 -2 0 3 3 -2 -3 -1 -3 -4 -5 -6 -9 -4 0 -0 -4 2 -3 -2 -1 1 -6 -8 2 -1
-2 -0 0 1 -1 -1 -1 -2 -1 -4 -1 1 2 1 -3 -4 -10 9 -3 0 -4 -4 1 3 -8 -6 -5
Height
1562 1564 1566 1565 1566 1566 1568 1567 1565 1564 1562 1559 1556 1554 1551 1549 1546 1544 1542 1539 1536 1533 1531 1528 1526 1522 1520
1558 1559 1564 1564 1564 1563 1563 1564 1563 1561 1559 1556 1553 1551 1548 1546 1543 1541 1537 1533 1530 1527 1524 1522 1521 1521 1516
1553 1554 1558 1561 1561 1560 1560 1561 1559 1558 1556 1553 1550 1548 1545 1543 1540 1535 1531 1528 1526 1522 1520 1517 1514 1511 1510
1550 1552 1555 1557 1557 1557 1557 1555 1555 1554 1552 1550 1548 1545 1542 1539 1534 1530 1525 1522 1519 1515 1514 1512 1509 1504 1502
1545 1547 1551 1553 1554 1553 1553 1550 1549 1548 1548 1547 1546 1543 1538 1534 1529 1524 1519 1515 1513 1512 1508 1503 1502 1499 1496
1542 1542 1545 1547 1549 1550 1549 1546 1543 1542 1540 1543 1539 1538 1535 1530 1525 1519 1515 1512 1510 1504 1502 1497 1495 1493 1489
1538 1538 1540 1543 1545 1545 1543 1542 1541 1538 1534 1534 1533 1532 1528 1526 1521 1516 1511 1508 1505 1500 1495 1491 1489 1486 1483
1535 1535 1537 1539 1541 1541 1540 1538 1537 1534 1530 1528 1526 1521 1520 1517 1514 1513 1510 1506 1500 1495 1490 1486 1482 1479 1476
1532 1533 1534 1535 1535 1536 1535 1536 1531 1530 1525 1522 1521 1513 1511 1511 1508 1506 1505 1502 1495 1490 1485 1481 1477 1472 1467
1531 1532 1530 1531 1532 1532 1532 1530 1529 1525 1523 1519 1516 1512 1502 1499 1500 1500 1500 1497 1491 1486 1481 1477 1472 1465 1460
1528 1528 1528 1527 1528 1529 1529 1527 1525 1523 1521 1515 1511 1510 1506 1497 1493 1493 1491 1489 1485 1481 1476 1472 1466 1461 1453
1526 1526 1525 1525 1525 1526 1526 1523 1521 1519 1516 1513 1509 1507 1502 1496 1491 1488 1485 1482 1479 1474 1469 1464 1460 1455 1451
1522 1523 1523 1524 1523 1523 1523 1521 1519 1515 1512 1510 1507 1503 1500 1496 1490 1484 1479 1474 1472 1468 1462 1457 1451 1447 1441
1520 1520 1521 1521 1521 1520 1518 1515 1513 1513 1510 1507 1504 1500 1496 1494 1489 1482 1480 1473 1466 1462 1456 1450 1446 1442 1437
1517 1518 1519 1519 1518 1516 1513 1511 1509 1507 1506 1504 1500 1497 1494 1489 1483 1480 1473 1467 1463 1456 1450 1443 1439 1435 1431
1515 1515 1516 1516 1514 1512 1509 1508 1506 1504 1502 1500 1496 1490 1486 1483 1481 1473 1468 1462 1457 1452 1447 1439 1430 1429 1425
1512 1513 1513 1513 1510 1508 1507 1505 1503 1502 1500 1497 1493 1488 1480 1475 1473 1474 1465 1458 1451 1445 1440 1435 1427 1421 1418